Terug naar catalogus

IRIDIUM 111

ActiefCommunicatiePO
NORAD 41926·PAYLOAD·🇺🇸 United States

Gelanceerd Jan 14, 2017 vanaf Vandenberg Space Force Base

Loading…

Volgende Passages (komende 24 uur)

TLE

VersSource: CelesTrak SupGP

Epoch: Sep 14, 2026, 21:26 UTC

1 41926C 17003K   26257.89340278  .00003141  00000+0  11229-2 0  2578
2 41926  86.3947  50.8392 0002197  92.1649 167.1482 14.34213849    17

Volg IRIDIUM 111 in realtime met AllMySat

Download on the App Store